Weather in Kamenka

Russia / Nenets Autonomous Okrug     67°29′16″N   51°52′52″E
temp.,
°C
wind,
m/s
gust,
m/s
humid.,
%
clouds,
%
prec.,
mm/h
press.,
hPa
HPBL,
m
12 august, fri
fri1200:00+14sw61297100 5.6 1001629
03:00+12wnw489628 7.2 1002260
06:00+12wnw57882 0.0 1002318
09:00+15w456432 0.0 1003808
12:00+16w787587 1.4 10021033
15:00+14nw9117523 3.4 10041188
18:00+13wnw8127021 0.3 10051133
21:00+9w7138234 0.3 1005532
13 august, sat
sat1300:00+10w91480100 0.1 1005837
03:00+10w101576100 0.1 1005917
06:00+10w10148381 0.1 1005812
09:00+9w10159099 0.4 1005826
12:00+12wnw121670100 0.3 10071527
15:00+9wnw111687100 0.5 10081393
18:00+10wnw91485100 0.2 10101000
21:00+7wnw8149130 0.3 1012569
14 august, sun
sun1400:00+6wnw6139556 0.0 1014380
03:00+6wnw51192100 0.0 1015344
06:00+8nw61079100 0.1 10161079
09:00+10nw71074100 0.1 10171158
12:00+11nw71061100 0.1 10181527
15:00+12nw6859100 0.1 10191123
18:00+11wnw247097 0.1 1019237
21:00+7wnw2284100 0.1 101912
15 august, mon
mon1500:00+8sw3380100 0.0 101828
03:00+9sw4776100 0.0 1017114
06:00+10sw597881 0.0 1016308
09:00+13w6881100 0.3 1016843
12:00+14wnw81054100 0.1 10171269
15:00+13wnw8106496 0.1 10181365
18:00+12nw810681 0.1 1019925
21:00+8wnw6129511 0.1 1021386
16 august, tue
tue1600:00+9nw71074100 0.0 1022824
03:00+9nw7968100 0.0 1023935
06:00+10nw486371 0.0 1024886
09:00+13nw7859100 0.0 10251100
12:00+11wnw4573100 0.1 1025557
15:00+11s0174100 0.1 1025100
18:00+10s3588100 0.6 1024128
21:00+11s5109183 0.9 1022208